• MPC Preparation (Info)

  • MPEC 2019-Y112 : 2019 YP3

    The following Minor Planet Electronic Circular may be linked-to from your own Web pages, but must not otherwise be redistributed electronically.

    A form allowing access to any MPEC is at the bottom of this page.


    Read MPEC 2019-Y111 Read MPEC 2019-Y113


    M.P.E.C. 2019-Y112                            Issued 2019 December 29, 14:31 UT
    
         The Minor Planet Electronic Circulars contain information on unusual
             minor planets and routine data on comets.  They are published
        on behalf of Division F of the International Astronomical Union by the
              Minor Planet Center, Smithsonian Astrophysical Observatory,
                              Cambridge, MA 02138, U.S.A.
    
                 Prepared using the Tamkin Foundation Computer Network
    
                                  MPC@CFA.HARVARD.EDU
                URL https://www.minorplanetcenter.net/    ISSN 1523-6714
    
                                    2019 YP3                                 
    
    
    Observations:
         K19Y03P  C2019 12 27.53345 09 46 35.748-08 13 10.23         19.5 wUEY112F51
         K19Y03P* C2019 12 27.53345309 46 35.754-08 13 10.28         19.55wUEY112F51
         K19Y03P  C2019 12 27.54447809 46 23.364-08 13 05.93         19.56wUEY112F51
         K19Y03P  C2019 12 27.54448 09 46 23.368-08 13 05.89         19.6 wUEY112F51
         K19Y03P  C2019 12 27.55550 09 46 11.031-08 13 01.30         19.6 wUEY112F51
         K19Y03P  C2019 12 27.55550209 46 11.028-08 13 01.30         19.67wUEY112F51
         K19Y03P  C2019 12 27.56663909 45 58.636-08 12 56.33         19.71wUEY112F51
         K19Y03P  C2019 12 27.56664 09 45 58.632-08 12 56.35         19.7 wUEY112F51
         K19Y03P KC2019 12 28.00332 09 39 51.49 -08 11 21.6          19.5 GVEY112595
         K19Y03P KC2019 12 28.02176 09 39 35.54 -08 11 15.4          19.2 GVEY112595
         K19Y03P KC2019 12 28.08180309 38 44.18 -08 10 48.7          19.5 GVEY112L01
         K19Y03P KC2019 12 28.08272909 38 43.38 -08 10 47.9          19.7 GVEY112L01
         K19Y03P KC2019 12 28.09248409 38 35.11 -08 10 43.8          20.0 GVEY112L01
         K19Y03P KC2019 12 28.09356209 38 34.19 -08 10 43.6          20.0 GVEY112L01
         K19Y03P KC2019 12 28.09463609 38 33.29 -08 10 43.3          19.8 GVEY112L01
         K19Y03P  C2019 12 29.00341 09 29 19.60 -08 04 16.3          19.6 VVEY112033
         K19Y03P  C2019 12 29.00472 09 29 18.87 -08 04 16.0          19.5 VVEY112033
         K19Y03P  C2019 12 29.00604 09 29 18.11 -08 04 15.8          19.9 VVEY112033
    
    Observer details:
    033 Karl Schwarzschild Observatory, Tautenburg.  Observers S. Melnikov, U. Laux,
        B. Stecklum.  Measurer B. Stecklum.  1.34-m f/3 Schmidt + CCD.
    595 Farra d'Isonzo.  Observers S. Aschi, E. Pettarin.  Measurer E. Pettarin.  
        0.40-m f/5.15 reflector + CCD.
    F51 Pan-STARRS 1, Haleakala.  Observers J. Bulger, T. Lowe, A. Schultz, M. 
       Willman.  Measurers K. Chambers, S. Chastel, T. de Boer, L. Denneau, J. 
       Fairlamb, H. Flewelling, M. Huber, C.-C. Lin, E. Magnier, Y. Ramanjooloo, R. 
       Wainscoat, R. Weryk.  1.8-m Ritchey-Chretien + CCD.
    L01 Visnjan Observatory, Tican.  Observer K. Korlevic.  1.0-m f/2.9 reflector + 
       CCD.
    
    Orbital elements:
    2019 YP3                                                 Earth MOID = 0.0007 AU
    Epoch 2020 May 31.0 TT = JDT 2459000.5                  Veres
    M  50.62021              (2000.0)            P               Q
    n   0.28115747     Peri.  151.53618     +0.43707556     -0.89190830
    a   2.3076484      Node   272.34094     +0.80162521     +0.44479939
    e   0.5936807      Incl.    6.66902     +0.40787495     +0.08156648
    P   3.51           H   25.7           G   0.15           U   6
    Residuals in seconds of arc
    191227 F51  0.0   0.0     191227 F51  0.1+  0.0     191228 L01  0.0   0.0
    191227 F51  0.1+  0.0     191227 F51  0.0   0.0     191228 L01  0.1-  0.3-
    191227 F51  0.0   0.0     191228 595  0.4+  0.4+    191228 L01  0.0   0.5-
    191227 F51  0.0   0.0     191228 595  0.7-  0.0     191229 033  0.3-  0.2+
    191227 F51  0.1-  0.0     191228 L01  0.2+  0.0     191229 033  0.1+  0.0
    191227 F51  0.1-  0.0     191228 L01  0.1+  0.4+    191229 033  0.2+  0.2-
    
    Ephemeris:
    2019 YP3                 a,e,i = 2.31, 0.59, 7                   q = 0.9376
    Date    TT    R. A. (2000) Decl.     Delta      r    Elong.  Phase     V
    2019 11 29    20 30 43.8 +05 54 23   0.1488  0.9405    67.8   103.8    25.2
    ...
    2019 12 14    20 24 33.7 +06 51 14   0.05994 0.9501    53.6   123.5    24.6
    ...
    2019 12 22    19 01 09.2 +05 10 41   0.01292 0.9728    32.5   147.1    24.1
    ...
    2019 12 28    09 39 45.4 -08 06 47   0.02509 0.9973   122.9    55.9    19.7
    2019 12 29    09 29 15.3 -08 00 19   0.03095 1.0019   126.0    52.6    20.1
    2019 12 30    09 22 02.5 -07 54 32   0.03686 1.0066   128.4    50.0    20.4
    ...
    2020 01 05    09 02 36.8 -07 23 42   0.07275 1.0380   137.5    39.8    21.7
    ...
    2020 01 13    08 52 37.8 -06 33 25   0.1218  1.0865   146.0    30.4    22.6
    ...
    2020 01 28    08 42 30.2 -04 15 39   0.2220  1.1925   157.3    18.6    23.8
    
    A. U. Tomatic                (C) Copyright 2019 MPC           M.P.E.C. 2019-Y112
    


    Read MPEC 2019-Y111 Read MPEC 2019-Y113


    MPEC number:

    Enter an MPEC number in one of the following forms:

    • 1997-B01 (the full form)
    • J97B01 (the packed version of the full form)
    • B01 (the abbreviated form)